Skip Page Navigation
NASA JPL Caltech
NASA Logo - Jet Propulsion Laboratory + View the NASA Portal
+ Center for Near-Earth Object Studies
JPL Home Earth Solar System Stars & Galaxies Technology
JPL Solar System Dynamics
BODIES ORBITS EPHEMERIDES TOOLS PHYSICAL DATA DISCOVERY FAQ SITE MAP
JPL Small-Body Database Browser
Search: [ help ]  
70030 Margaretmiller (1999 CZ1)
Classification: Inner Main-belt Asteroid          SPK-ID: 2070030
Ephemeris | Orbit Diagram | Orbital Elements | Mission Design | Physical Parameters | Discovery Circumstances | Close-Approach Data ]

[ hide orbit diagram ]

For accurate long-term ephemerides, please instead use our Horizons system.This orbit viewer was implemented using two-body methods, and hence should not be used for determining accurate long-term trajectories (over several years or decades) or planetary encounter circumstances.


[ revert to old Java-based viewer ]

Orbital Elements at Epoch 2459000.5 (2020-May-31.0) TDB
Reference: JPL 19 (heliocentric ecliptic J2000)
 Element Value Uncertainty (1-sigma)   Units 
e .0858136964329787 5.7353e-08  
a 1.952751681442058 5.9158e-09 au
q 1.7851788414418 1.127e-07 au
i 17.03094424463779 5.3576e-06 deg
node 319.9706902719846 1.2404e-05 deg
peri 177.0441307915281 2.549e-05 deg
M 284.7277361312431 2.4317e-05 deg
tp 2459208.901785121114
(2020-Dec-25.40178512)
6.7639e-05 TDB
period 996.7103257902874
2.73
4.5293e-06
1.24e-08
d
yr
n .3611881914783591 1.6413e-09 deg/d
Q 2.120324521442315 6.4235e-09 au
  Orbit Determination Parameters
   # obs. used (total)      1021  
   data-arc span      7645 days (20.93 yr)  
   first obs. used      1998-11-25  
   last obs. used      2019-10-31  
   planetary ephem.      DE431  
   SB-pert. ephem.      SB431-N16  
   condition code      0  
   norm. resid. RMS      .47962  
   source      ORB  
   producer      Otto Matic  
   solution date      2019-Nov-07 08:18:37  

Additional Information
 Earth MOID = .798697 au 
 Jupiter MOID = 2.90745 au 
 T_jup = 3.832 
[ show covariance matrix ]

Ephemeris | Orbit Diagram | Orbital Elements | Mission Design | Physical Parameters | Discovery Circumstances | Close-Approach Data ]

Physical Parameter Table
Parameter Symbol Value Units Sigma Reference Notes
absolute magnitude H 15.1   n/a MPO493357  
diameter diameter 1.435 km 0.276 urn:nasa:pds:neowise_diameters_albedos::2.0[mainbelt] (http://adsabs.harvard.edu/abs/2011ApJ...741...68M)  
rotation period rot_per 4.3292 h n/a LCDB (Rev. 2019-August); Warner et al., 2009 Published Reference List:
[Warner, B.D. (2010) Minor Planet Bull. 37, 112-118.]
[Warner, B.D (2012) Minor Planet Bull. 39, 16-21.]
[Warner, B.D. (2015) Minor Planet Bull. 42, 108-114.]
geometric albedo albedo 0.857   0.182 urn:nasa:pds:neowise_diameters_albedos::2.0[mainbelt] (http://adsabs.harvard.edu/abs/2011ApJ...741...68M)  

70030 Margaretmiller           Discovered 1999 Feb. 7 by B. D. Warner at Palmer Divide Observatory.
Margaret Joan Miller (b. 1956) is the wife of the discoverer. A graduate of Indiana University, she is an accomplished violist who, as a member of the DaVinci Quartet, was a prize winner in two major international competitions. She now devotes her time to teaching viola and violin to students of all ages.
NOTE: some special characters may not display properly (any characters within {} are an attempt to place the proper accent above a character)
Reference: 20040306/MPCPages.arcLast Updated: 2004-03-08

[ show close-approach data ]
Ephemeris | Orbit Diagram | Orbital Elements | Mission Design | Physical Parameters | Discovery Circumstances | Close-Approach Data ]
ABOUT SSD CREDITS/AWARDS PRIVACY/COPYRIGHT GLOSSARY LINKS
FirstGov 2020-Oct-29 15:08 UT
(server date/time)  
NASA Home Page
Site Manager:   Ryan S. Park
Webmaster  Alan B. Chamberlin